Погода Дзерджинское

Погода Дзерджинское : погода сейчас, прогноз погоды и архив. Всё, что Вы хотите узнать о погоде Дзерджинское!

Хотите узнать прогноз погоды Дзерджинское? Тогда Вам сюда: Погода Дзерджинское

Поиск расширенной информации на нашем сайте:

Другие новости

Новости СМИ2

Главная страница сайта

Новости сайта

03.07.2017

Напоминаем, что на нашем специализированном сайте Метеоцентр.Азия вы можете получить высокодетализированные автоматические прогнозы погоды по пунктам России, СНГ и мира в авиационном формате (включающие направление и скорость ветра, видимость, явления погоды, количество и форму облачности, нижнюю и верхнюю границу облачности).

Рекомендуем: Ремонт husqvarna проблема с хускварной husqvarna.

Погода Дзерджинское - сегодня

Время (UTC), дата Ветер
(°,м/с) 
Видим.   Явления Облачность Т
(°С)
Тd
(°С)
f(%) Тe
(°С)
Pmin
(гПа)
dP
(гПа)
Po
(мм)
O2
(г/м3)
Тmin Tmax R s Состояние
почвы
12 15.06.18 тихо ()   20000 м  {ливн. осадки, дождь}  9/9 600 м кучево-дожд. 
[Cb calv]
+13.9 +13.7 99 +21  1011.6  0.6  742  282    +19.9     
15 15.06.18 тихо ()   20000 м    6/6 600 м кучево-дожд. 
[Cb calv]
+12 +12 100 +16  1012.1  0.4  742  284           
18 15.06.18 тихо ()   20000 м    9/9 600 м кучево-дожд. 
[Cb calv]
+9.9 +9.9 100 +11  1012.4  0.3  742  287           
21 15.06.18 тихо ()   20000 м    9/3 600 м кучево-дожд., средняя 
[Cb calv|Ac trans]
+10.2 +10.2 100 +12  1012.3  -0.1  742  286           
00 16.06.18 260 (З) 20000 м    6/5 2000 м средняя, верхняя 
[Ac trans|Ci fib]
+14.8 +12.1 84 +20  1012.1  0.2  743  281  +9.7        мокрая 
03 16.06.18 280 (З) 20000 м    8/8 600 м кучево-дожд. 
[Cb calv]
+15.9 +11.5 75 +20  1012.5  0.3  743  281           
06 16.06.18 210 (ЮЗ) 20000 м    8/8 600 м кучево-дожд. 
[Cb calv]
+17.6 +12.3 71 +24  1012.4  743  279           
09 16.06.18 310 (СЗ) 20000 м    6/6 600 м кучево-дожд. 
[Cb calv]
+18.5 +11.7 65 +24  1011.9  -0.4  742  278           
12 16.06.18 010 (С) 10 км  слаб. ливневой дождь  6/6 600 м кучево-дожд. 
[Cb calv]
+17.4 +14.1 81 +26  1012.1  0.1  743  278    +20.5  0.4     
15 16.06.18 тихо ()   20000 м  {ливн. осадки}  4/0 верхняя 
[Ci fib]
+13 +12.9 99 +18  1012.8  0.3  743  283           
18 16.06.18 тихо ()   20000 м  {ливн. осадки}  6/6 600 м кучево-дожд. 
[Cb calv]
+10.1 +10.1 100 +12  1013.8  0.8  743  287           
21 16.06.18 тихо ()   20000 м    4/3 600 м кучево-дожд., верхняя 
[Cb calv|Ci fib]
+8.4 +8.4 100 +8  1014.1  743  289           
00 17.06.18 тихо ()   20000 м    3/0 верхняя 
[Ci fib]
+13.5 +13 97 +19  1014.3  0.7  744  283  +7.9    0.0    мокрая 
03 17.06.18 130 (ЮВ) 20000 м    6/3 600 м кучево-дожд., верхняя 
[Cb calv|Ci fib]
+21 +12.2 57 +25  1013.3  -0.4  744  276           
06 17.06.18 140 (ЮВ) 20000 м    8/4 600 м кучево-дожд., верхняя 
[Cb calv|Ci fib]
+22.6 +12 51 +27  1012.4  -0.7  743  274           
09 17.06.18 180 (Ю) 20000 м    8/3 600 м кучево-дожд., верхняя 
[Cb calv|Ci fib]
+25.2 +10 38 +27  1011.3  -1  742  272           
12 17.06.18 150 (ЮВ) 20000 м    9/4 600 м кучево-дожд., верхняя 
[Cb calv|Ci fib]
+23 +11.9 50 +27  1011.2  -0.2  742  274    +25.2       
15 17.06.18 тихо ()   20000 м    3/3 600 м кучево-дожд. 
[Cb calv]
+15.7 +12.9 83 +21  1012.2  0.5  743  280           
18 17.06.18 100 (В) 20000 м    3/0 верхняя 
[Ci fib]
+11 +10.8 99 +14  1012.9  0.3  743  286           
21 17.06.18 130 (ЮВ) 20000 м    3/0 верхняя 
[Ci fib]
+8.8 +8.8 100 +10  1013.2  0.1  743  288           
00 18.06.18 140 (ЮВ) 20000 м    4/0 верхняя 
[Ci fib]
+16.4 +12.5 78 +23  1013  0.4  743  280  +8.6        влажная 
03 18.06.18 110 (В) 20000 м    3/0 верхняя 
[Ci fib]
+24.1 +11.6 45 +28  1011.6  -0.7  743  273           
06 18.06.18 130 (ЮВ) 20000 м    4/3 600 м верхняя 
[Cu hum|Ci fib]
+26.7 +11 37 +29  1009.9  -1.5  741  270           
09 18.06.18 110 (В) 4{12}  20000 м    3/3 600 м 
[Cu hum]
+27.7 +11 35 +30  1008.3  -1.5  740  269           
12 18.06.18 110 (В) 10 км    3/0 верхняя 
[Ci fib]
+26.6 +10.1 35 +27        +27.8       
Время (UTC), дата Ветер
(°,м/с) 
Видим.   Явления Облачность Т
(°С)
Тd
(°С)
f(%) Тe
(°С)
Pmin
(гПа)
dP
(гПа)
Po
(мм)
O2
(г/м3)
Тmin Tmax R s Состояние
почвы

Для получения пояснительной информации подведите курсор к названию столбца.

ПОГОДА Дзерджинское - архив

Всё, что Вы хотите узнать о погоде Дзерджинское - удобно и подробно!

Выберите нужную дату (начиная с 1 января 2015* года) и нажмите кнопку "Найти".
Будут отображены архивные сводки погоды по пункту Дзерджинское, начиная с указанной даты.


Отображать данные в формате CSV (для использования в таблицах Excel)


Внимание! Наш архив погоды предназначен исключительно для личного некоммерческого использования в познавательных целях. Если Вам необходимы официальные справки о состоянии погоды (для производственных, юридических, коммерческих и т.п. целей), обращайтесь в органы Росгидромета.

*Примечание: данная дата относится к архиву по метеостанциям СССР (Россия, СНГ, Балтия).
Архив по метеостанциям Зарубежной Европы и Азии (кроме Китая) хранится 10 дней, по другим регионам земного шара (Китай, Африка, Америка, Австралия, Океания) - 1 день.

Дзерджинское - район местоположения метеостанции


Название, широта, долгота, высота метеостанции:
Дзерджинское 56.9°ш. 95.2°д. 188 м над ур. моря [Российская Федерация]

Дополнительная информация

В oтличие oт бoльшинства пoгoдных сайтoв мы публикуем пoдрoбную метеoинфoрмацию в детальнoм прoфессиoнальнoм фoрмате.

Характеристики температуры и влажнoсти вoздуха измеряются на высoте 2 м в тени вдали oт зданий и деревьев.
Скoрoсть ветра измеряется на высoте 10 м (на урoвне рoста челoвека скoрoсть ветра ниже в 1.5-2 раза). Если метеoстанция нахoдится в гoрoде или в лесу, тo скoрoсть ветра занижена на 2-4 м/с пo сравнению с oткрытым местoм. Скoрoсть ветра над акватoриями крупных рек и oзёр, а также на вершинах хoлмoв на 2-5 м/с выше, чем в oбычных услoвиях.
Атмoсфернoе давление в разных тoчках местнoсти мoжет значительнo oтличаться oт давления на метеoстанции, в зависимoсти oт услoвий рельефа (при пoдъёме на 10 м давление пoнижается примернo на 1 мм рт.ст.).